Weather in Ternovoye

Russia / Tambov Oblast     53°00′09″N   40°22′02″E
temp.,
°C
wind,
m/s
gust,
m/s
humid.,
%
clouds,
%
prec.,
mm/h
press.,
hPa
HPBL,
m
28 february, sun
sun2800:00−9nnw389568 0.0 1013282
03:00−10nnw229667 0.0 101474
06:00−8w1197100 0.3 101522
09:00−7nnw369193 0.4 1015318
12:00−4nnw368794 0.0 1015482
15:00−3nnw368796 0.1 1015549
18:00−4nnw3790100 0.0 1016445
21:00−5nne2792100 0.1 1018466
1 march, mon
mon100:00−7nne129695 0.0 102023
03:00−7nne129697 0.1 102256
06:00−7nne1196100 0.1 102424
09:00−6ne019397 0.1 102698
12:00−3nnw248388 0.0 1026475
15:00−1w358391 0.0 1026609
18:00−2wsw488994 0.0 1024526
21:00−4wsw4119395 0.0 1023381
2 march, tue
tue200:00−3wsw51193100 0.1 1020474
03:00−1wsw51292100 0.1 1018556
06:00+1wsw61391100 0.1 1015690
09:00+1w61294100 0.1 1013848
12:00+1w51194100 0.1 1011656
15:00+1wnw51098100 0.1 1010619
18:000wnw3995100 0.1 1009364
21:000nnw3798100 0.8 1009399
3 march, wed
wed300:00−2nnw3996100 0.1 1010287
03:00−3nnw3109386 0.1 1011282
06:00−2nw4109296 0.1 1012547
09:00−2nw6119095 0.1 1013743
12:00−1nnw61086100 0.3 10151046
15:00−2nw61080100 0.4 1016919
18:00−4nw4108299 0.0 1017809
21:00−5w389249 0.0 1018207
4 march, thu
thu400:00−5wsw399437 0.0 1017232
03:00−5wsw4109448 0.0 1015275
06:00−4wsw5129319 0.0 1013384
09:00−2wsw6148445 0.0 1011705
12:00+1wsw7157782 0.0 1007821
15:00+2wsw8157757 0.0 10061057
18:00+1w6138694 0.0 10041051
21:000wsw5139096 0.1 1005747